Time,TemperatureF,DewpointF,PressureIn,WindDirection,WindDirectionDegrees,WindSpeedMPH,WindSpeedGustMPH,Humidity,HourlyPrecipIn,Conditions,Clouds,dailyrainin,SoftwareType,DateUTC
2013-04-15 00:03:00,31.0,31.0,-100.00,SE,145,4.0,9.0,99,-99.99,,,-99.99,,2013-04-15 04:03:00,
2013-04-15 00:12:00,32.0,32.0,-100.00,SSE,160,2.0,3.0,99,-99.99,,,-99.99,,2013-04-15 04:12:00,
2013-04-15 00:33:00,32.0,32.0,-100.00,SSE,160,2.0,3.0,99,-99.99,,,-99.99,,2013-04-15 04:33:00,
2013-04-15 00:43:00,32.0,32.0,-100.00,SSE,160,2.0,3.0,99,-99.99,,,-99.99,,2013-04-15 04:43:00,
2013-04-15 00:53:00,32.0,32.0,-100.00,SSE,160,2.0,3.0,99,-99.99,,,-99.99,,2013-04-15 04:53:00,
2013-04-15 01:02:00,32.0,32.0,-100.00,SSE,160,2.0,3.0,99,-99.99,,,-99.99,,2013-04-15 05:02:00,
2013-04-15 01:33:00,32.0,32.0,-100.00,SE,130,1.0,3.0,99,-99.99,,,-99.99,,2013-04-15 05:33:00,
2013-04-15 01:43:00,32.0,32.0,-100.00,SE,130,1.0,3.0,99,-99.99,,,-99.99,,2013-04-15 05:43:00,
2013-04-15 01:53:00,32.0,32.0,-100.00,SE,130,1.0,3.0,99,-99.99,,,-99.99,,2013-04-15 05:53:00,
2013-04-15 02:02:00,32.0,32.0,-100.00,SE,130,1.0,3.0,99,-99.99,,,-99.99,,2013-04-15 06:02:00,
2013-04-15 02:12:00,32.0,32.0,-100.00,SE,130,1.0,3.0,99,-99.99,,,-99.99,,2013-04-15 06:12:00,
2013-04-15 02:34:00,32.0,32.0,-100.00,SSE,155,2.0,4.0,99,-99.99,,,-99.99,,2013-04-15 06:34:00,
2013-04-15 02:43:00,32.0,32.0,-100.00,SSE,155,2.0,4.0,99,-99.99,,,-99.99,,2013-04-15 06:43:00,
2013-04-15 02:52:00,32.0,32.0,-100.00,SSE,155,2.0,4.0,99,-99.99,,,-99.99,,2013-04-15 06:52:00,
2013-04-15 03:02:00,32.0,32.0,-100.00,SSE,155,2.0,4.0,99,-99.99,,,-99.99,,2013-04-15 07:02:00,
2013-04-15 03:12:00,33.0,32.0,-100.00,SE,145,1.0,3.0,99,-99.99,,,-99.99,,2013-04-15 07:12:00,
2013-04-15 03:43:00,33.0,32.0,-100.00,SE,145,1.0,3.0,99,-99.99,,,-99.99,,2013-04-15 07:43:00,
2013-04-15 03:54:00,33.0,32.0,-100.00,SE,145,1.0,3.0,99,-99.99,,,-99.99,,2013-04-15 07:54:00,
2013-04-15 04:02:00,33.0,32.0,-100.00,SE,145,1.0,3.0,99,-99.99,,,-99.99,,2013-04-15 08:02:00,
2013-04-15 04:12:00,33.0,33.0,-100.00,SSE,165,1.0,2.0,99,-99.99,,,-99.99,,2013-04-15 08:12:00,
2013-04-15 04:34:00,33.0,33.0,-100.00,SSE,165,1.0,2.0,99,-99.99,,,-99.99,,2013-04-15 08:34:00,
2013-04-15 04:43:00,33.0,33.0,-100.00,SSE,165,1.0,2.0,99,-99.99,,,-99.99,,2013-04-15 08:43:00,
2013-04-15 04:52:00,33.0,33.0,-100.00,SSE,165,1.0,2.0,99,-99.99,,,-99.99,,2013-04-15 08:52:00,
2013-04-15 05:02:00,33.0,33.0,-100.00,SSE,165,1.0,2.0,99,-99.99,,,-99.99,,2013-04-15 09:02:00,
2013-04-15 05:33:00,33.0,33.0,-100.00,SSE,160,1.0,1.0,99,-99.99,,,-99.99,,2013-04-15 09:33:00,
2013-04-15 05:43:00,33.0,33.0,-100.00,SSE,160,1.0,1.0,99,-99.99,,,-99.99,,2013-04-15 09:43:00,
2013-04-15 05:53:00,33.0,33.0,-100.00,SSE,160,1.0,1.0,99,-99.99,,,-99.99,,2013-04-15 09:53:00,
2013-04-15 06:02:00,33.0,33.0,-100.00,SSE,160,1.0,1.0,99,-99.99,,,-99.99,,2013-04-15 10:02:00,
2013-04-15 06:13:00,33.0,33.0,-100.00,SSE,160,1.0,1.0,99,-99.99,,,-99.99,,2013-04-15 10:13:00,
2013-04-15 07:13:00,33.0,33.0,-100.00,South,175,1.0,2.0,99,-99.99,,,-99.99,,2013-04-15 11:13:00,
2013-04-15 07:33:00,33.0,33.0,-100.00,South,175,1.0,2.0,99,-99.99,,,-99.99,,2013-04-15 11:33:00,
2013-04-15 07:54:00,33.0,33.0,-100.00,South,175,1.0,2.0,99,-99.99,,,-99.99,,2013-04-15 11:54:00,
2013-04-15 08:04:00,33.0,33.0,-100.00,South,175,1.0,2.0,99,-99.99,,,-99.99,,2013-04-15 12:04:00,
2013-04-15 08:12:00,33.0,33.0,-100.00,SSE,160,1.0,2.0,99,-99.99,,,-99.99,,2013-04-15 12:12:00,
2013-04-15 08:34:00,33.0,33.0,-100.00,SSE,160,1.0,2.0,99,-99.99,,,-99.99,,2013-04-15 12:34:00,
2013-04-15 08:43:00,33.0,33.0,-100.00,SSE,160,1.0,2.0,99,-99.99,,,-99.99,,2013-04-15 12:43:00,
2013-04-15 08:53:00,33.0,33.0,-100.00,SSE,160,1.0,2.0,99,-99.99,,,-99.99,,2013-04-15 12:53:00,
2013-04-15 09:04:00,33.0,33.0,-100.00,SSE,160,1.0,2.0,99,-99.99,,,-99.99,,2013-04-15 13:04:00,
2013-04-15 09:11:00,34.0,34.0,-100.00,SSE,160,1.0,2.0,99,-99.99,,,-99.99,,2013-04-15 13:11:00,
2013-04-15 09:34:00,34.0,34.0,-100.00,SSE,160,1.0,2.0,99,-99.99,,,-99.99,,2013-04-15 13:34:00,
2013-04-15 09:43:00,34.0,34.0,-100.00,SSE,160,1.0,2.0,99,-99.99,,,-99.99,,2013-04-15 13:43:00,
2013-04-15 09:54:00,34.0,34.0,-100.00,SSE,160,1.0,2.0,99,-99.99,,,-99.99,,2013-04-15 13:54:00,
2013-04-15 10:05:00,34.0,34.0,-100.00,SSE,160,1.0,2.0,99,-99.99,,,-99.99,,2013-04-15 14:05:00,
2013-04-15 10:12:00,37.0,37.0,-100.00,SSW,210,3.0,11.0,99,-99.99,,,-99.99,,2013-04-15 14:12:00,
2013-04-15 10:34:00,37.0,37.0,-100.00,SSW,210,3.0,11.0,99,-99.99,,,-99.99,,2013-04-15 14:34:00,
2013-04-15 10:44:00,37.0,37.0,-100.00,SSW,210,3.0,11.0,99,-99.99,,,-99.99,,2013-04-15 14:44:00,
2013-04-15 10:55:00,37.0,37.0,-100.00,SSW,210,3.0,11.0,99,-99.99,,,-99.99,,2013-04-15 14:55:00,
2013-04-15 11:03:00,37.0,37.0,-100.00,SSW,210,3.0,11.0,99,-99.99,,,-99.99,,2013-04-15 15:03:00,
2013-04-15 11:12:00,38.0,38.0,-100.00,South,170,4.0,11.0,98,-99.99,,,-99.99,,2013-04-15 15:12:00,
2013-04-15 11:37:00,38.0,38.0,-100.00,South,170,4.0,11.0,98,-99.99,,,-99.99,,2013-04-15 15:37:00,
2013-04-15 11:45:00,38.0,38.0,-100.00,South,170,4.0,11.0,98,-99.99,,,-99.99,,2013-04-15 15:45:00,
2013-04-15 11:55:00,38.0,38.0,-100.00,South,170,4.0,11.0,98,-99.99,,,-99.99,,2013-04-15 15:55:00,
2013-04-15 12:04:00,38.0,38.0,-100.00,South,170,4.0,11.0,98,-99.99,,,-99.99,,2013-04-15 16:04:00,
2013-04-15 12:12:00,41.0,37.0,-100.00,SW,215,6.0,18.0,84,-99.99,,,-99.99,,2013-04-15 16:12:00,
2013-04-15 12:34:00,41.0,37.0,-100.00,SW,215,6.0,18.0,84,-99.99,,,-99.99,,2013-04-15 16:34:00,
2013-04-15 12:44:00,41.0,37.0,-100.00,SW,215,6.0,18.0,84,-99.99,,,-99.99,,2013-04-15 16:44:00,
2013-04-15 12:54:00,41.0,37.0,-100.00,SW,215,6.0,18.0,84,-99.99,,,-99.99,,2013-04-15 16:54:00,
2013-04-15 13:03:00,41.0,37.0,-100.00,SW,215,6.0,18.0,84,-99.99,,,-99.99,,2013-04-15 17:03:00,
2013-04-15 13:33:00,44.0,34.0,-100.00,West,260,6.0,17.0,69,-99.99,,,-99.99,,2013-04-15 17:33:00,
2013-04-15 13:43:00,44.0,34.0,-100.00,West,260,6.0,17.0,69,-99.99,,,-99.99,,2013-04-15 17:43:00,
2013-04-15 13:52:00,44.0,34.0,-100.00,West,260,6.0,17.0,69,-99.99,,,-99.99,,2013-04-15 17:52:00,
2013-04-15 14:03:00,44.0,34.0,-100.00,West,260,6.0,17.0,69,-99.99,,,-99.99,,2013-04-15 18:03:00,
2013-04-15 14:12:00,44.0,34.0,-100.00,West,260,6.0,17.0,69,-99.99,,,-99.99,,2013-04-15 18:12:00,
2013-04-15 14:42:00,43.0,20.0,-100.00,West,260,12.0,22.0,39,-99.99,,,-99.99,,2013-04-15 18:42:00,
2013-04-15 14:52:00,43.0,20.0,-100.00,West,260,12.0,22.0,39,-99.99,,,-99.99,,2013-04-15 18:52:00,
2013-04-15 15:02:00,43.0,20.0,-100.00,West,260,12.0,22.0,39,-99.99,,,-99.99,,2013-04-15 19:02:00,
2013-04-15 15:12:00,43.0,20.0,-100.00,West,260,12.0,22.0,39,-99.99,,,-99.99,,2013-04-15 19:12:00,
2013-04-15 15:59:00,43.0,23.0,-100.00,WSW,245,7.0,19.0,45,-99.99,,,-99.99,,2013-04-15 19:59:00,
2013-04-15 16:01:00,43.0,23.0,-100.00,WSW,245,7.0,19.0,45,-99.99,,,-99.99,,2013-04-15 20:01:00,
2013-04-15 16:02:00,43.0,23.0,-100.00,WSW,245,7.0,19.0,45,-99.99,,,-99.99,,2013-04-15 20:02:00,
2013-04-15 16:11:00,43.0,23.0,-100.00,WSW,245,7.0,19.0,45,-99.99,,,-99.99,,2013-04-15 20:11:00,
2013-04-15 16:32:00,38.0,21.0,-100.00,North,-999,-999.0,-999.0,49,-99.99,,,-99.99,,2013-04-15 20:32:00,
2013-04-15 16:42:00,38.0,21.0,-100.00,WSW,250,9.0,22.0,49,-99.99,,,-99.99,,2013-04-15 20:42:00,
2013-04-15 16:52:00,38.0,21.0,-100.00,WSW,250,9.0,22.0,49,-99.99,,,-99.99,,2013-04-15 20:52:00,
2013-04-15 17:02:00,38.0,21.0,-100.00,WSW,250,9.0,22.0,49,-99.99,,,-99.99,,2013-04-15 21:02:00,
2013-04-15 17:12:00,38.0,21.0,-100.00,WSW,250,9.0,22.0,49,-99.99,,,-99.99,,2013-04-15 21:12:00,
2013-04-15 17:43:00,36.0,23.0,-100.00,West,270,6.0,20.0,57,-99.99,,,-99.99,,2013-04-15 21:43:00,
2013-04-15 17:53:00,36.0,23.0,-100.00,West,270,6.0,20.0,57,-99.99,,,-99.99,,2013-04-15 21:53:00,
2013-04-15 18:02:00,36.0,23.0,-100.00,West,270,6.0,20.0,57,-99.99,,,-99.99,,2013-04-15 22:02:00,
2013-04-15 18:13:00,36.0,23.0,-100.00,West,270,6.0,20.0,57,-99.99,,,-99.99,,2013-04-15 22:13:00,
2013-04-15 18:42:00,36.0,24.0,-100.00,WSW,250,4.0,14.0,61,-99.99,,,-99.99,,2013-04-15 22:42:00,
2013-04-15 18:52:00,36.0,24.0,-100.00,WSW,250,4.0,14.0,61,-99.99,,,-99.99,,2013-04-15 22:52:00,
2013-04-15 19:02:00,36.0,24.0,-100.00,WSW,250,4.0,14.0,61,-99.99,,,-99.99,,2013-04-15 23:02:00,
2013-04-15 19:12:00,36.0,24.0,-100.00,WSW,250,4.0,14.0,61,-99.99,,,-99.99,,2013-04-15 23:12:00,
2013-04-15 19:42:00,36.0,25.0,-100.00,West,265,5.0,12.0,63,-99.99,,,-99.99,,2013-04-15 23:42:00,
2013-04-15 19:52:00,36.0,25.0,-100.00,West,265,5.0,12.0,63,-99.99,,,-99.99,,2013-04-15 23:52:00,
2013-04-15 20:02:00,36.0,25.0,-100.00,West,265,5.0,12.0,63,-99.99,,,-99.99,,2013-04-16 00:02:00,
2013-04-15 20:12:00,36.0,25.0,-100.00,West,265,5.0,12.0,63,-99.99,,,-99.99,,2013-04-16 00:12:00,
2013-04-15 20:42:00,36.0,25.0,-100.00,West,265,7.0,14.0,63,-99.99,,,-99.99,,2013-04-16 00:42:00,
2013-04-15 20:52:00,36.0,25.0,-100.00,West,265,7.0,14.0,63,-99.99,,,-99.99,,2013-04-16 00:52:00,
2013-04-15 21:02:00,36.0,25.0,-100.00,West,265,7.0,14.0,63,-99.99,,,-99.99,,2013-04-16 01:02:00,
2013-04-15 21:12:00,36.0,25.0,-100.00,West,265,7.0,14.0,63,-99.99,,,-99.99,,2013-04-16 01:12:00,
2013-04-15 21:42:00,35.0,24.0,-100.00,WSW,250,3.0,12.0,64,-99.99,,,-99.99,,2013-04-16 01:42:00,
2013-04-15 21:52:00,35.0,24.0,-100.00,WSW,250,3.0,12.0,64,-99.99,,,-99.99,,2013-04-16 01:52:00,
2013-04-15 22:02:00,35.0,24.0,-100.00,WSW,250,3.0,12.0,64,-99.99,,,-99.99,,2013-04-16 02:02:00,
2013-04-15 22:12:00,35.0,24.0,-100.00,WSW,250,3.0,12.0,64,-99.99,,,-99.99,,2013-04-16 02:12:00,
2013-04-15 22:32:00,35.0,25.0,-100.00,West,270,3.0,12.0,66,-99.99,,,-99.99,,2013-04-16 02:32:00,
2013-04-15 22:42:00,35.0,25.0,-100.00,West,270,3.0,12.0,66,-99.99,,,-99.99,,2013-04-16 02:42:00,
2013-04-15 22:52:00,35.0,25.0,-100.00,West,270,3.0,12.0,66,-99.99,,,-99.99,,2013-04-16 02:52:00,
2013-04-15 23:02:00,35.0,25.0,-100.00,West,270,3.0,12.0,66,-99.99,,,-99.99,,2013-04-16 03:02:00,
2013-04-15 23:12:00,35.0,25.0,-100.00,West,270,3.0,12.0,66,-99.99,,,-99.99,,2013-04-16 03:12:00,
2013-04-15 23:43:00,35.0,25.0,-100.00,West,270,4.0,11.0,67,-99.99,,,-99.99,,2013-04-16 03:43:00,
2013-04-15 23:53:00,35.0,25.0,-100.00,West,270,4.0,11.0,67,-99.99,,,-99.99,,2013-04-16 03:53:00,